period_start,C,m1,H,J0,J1,J2,J3,J4,J5,JA,JB,JC,JD,JJ,JK,JN,#
2017-12-07 02:17:36,-3333.30,0.00,0.00,6.31,8.63,6.91,14.50,45.98,1021.45,2101.39,3648.95,3216.81,3686.73,600.14,634.79,0.01,0000 0000 0000 0000 000000
2017-12-07 02:22:37,0.00,0.00,0.00,6.69,8.38,8.14,14.49,45.68,1021.83,2100.07,3643.13,3212.73,3682.60,599.90,633.90,0.06,0000 0000 0000 0000 000000
2017-12-07 02:27:38,0.02,0.01,0.00,7.20,8.18,8.80,14.51,45.51,1022.00,2100.77,3641.21,3211.74,3681.29,600.07,632.96,0.11,0000 0000 0000 0000 000000
2017-12-07 02:32:40,0.04,0.01,0.00,7.71,8.04,9.34,14.49,45.37,1022.30,2101.11,3639.74,3211.02,3680.41,599.78,631.79,0.16,0000 0000 0000 0000 000000
2017-12-07 02:37:41,0.08,0.02,0.00,8.17,7.94,9.87,14.43,45.09,1022.48,2101.85,3638.21,3210.20,3679.42,599.90,631.01,0.21,0000 0000 0000 0000 000000
2017-12-07 02:42:43,0.08,0.02,0.00,8.59,7.89,10.45,14.57,45.08,1022.51,2102.00,3636.63,3209.22,3677.99,600.06,630.35,0.26,0000 0000 0000 0000 000000
2017-12-07 02:47:44,0.08,0.02,0.00,8.89,7.89,10.67,14.42,44.93,1022.67,2102.04,3634.73,3208.06,3676.46,599.94,629.53,0.31,0000 0000 0000 0000 000000
2017-12-07 02:52:45,0.10,0.03,0.00,9.22,7.91,10.90,14.40,44.88,1022.64,2102.17,3632.63,3206.63,3674.71,599.84,628.62,0.36,0000 0000 0000 0000 000000
2017-12-07 02:57:47,0.11,0.03,0.00,9.53,7.97,11.19,14.40,44.67,1022.86,2102.27,3630.32,3205.05,3672.75,599.75,627.94,0.41,0000 0000 0000 0000 000000
2017-12-07 03:02:48,0.08,0.04,0.00,9.76,8.06,11.49,14.43,44.84,1022.96,2102.12,3627.96,3203.34,3670.68,599.87,627.94,0.46,0000 0000 0000 0000 000000
2017-12-07 03:07:49,0.11,0.04,0.00,10.00,8.17,11.78,14.36,44.73,1023.08,2102.01,3625.34,3201.47,3668.38,600.13,627.49,0.52,0000 0000 0000 0000 000000
2017-12-07 03:12:51,0.12,0.05,0.00,10.21,8.30,12.05,14.57,44.76,1023.33,2101.99,3622.56,3199.46,3665.97,600.24,627.31,0.57,0000 0000 0000 0000 000000
2017-12-07 03:17:52,0.06,0.06,0.00,10.43,8.45,12.34,14.49,44.77,1023.44,2101.50,3619.75,3197.43,3663.42,600.04,626.65,0.62,0000 0000 0000 0000 000000
2017-12-07 03:22:54,0.11,0.06,0.00,10.67,8.60,12.62,14.30,44.47,1023.44,2101.02,3616.92,3195.28,3660.83,599.93,626.04,0.67,0000 0000 0000 0000 000000
2017-12-07 03:27:55,0.11,0.07,0.00,10.88,8.77,12.88,14.36,44.43,1023.46,2100.84,3614.00,3193.07,3658.20,599.98,625.63,0.72,0000 0000 0000 0000 000000
2017-12-07 03:32:56,0.07,0.07,0.00,11.05,8.95,13.16,14.35,44.43,1023.73,2100.08,3610.99,3190.81,3655.45,599.49,624.90,0.77,0000 0000 0000 0000 000000
2017-12-07 03:37:58,0.09,0.08,0.00,11.21,9.13,13.41,14.37,44.46,1023.93,2099.69,3607.92,3188.41,3652.61,600.12,625.30,0.82,0000 0000 0000 0000 000000
2017-12-07 03:42:59,0.11,0.08,0.00,11.35,9.32,13.66,14.40,44.52,1023.94,2099.02,3604.74,3185.96,3649.67,599.87,624.97,0.87,0000 0000 0000 0000 000000
2017-12-07 03:48:00,0.07,0.09,0.00,11.51,9.52,13.91,14.38,44.42,1024.03,2098.33,3601.50,3183.47,3646.77,599.96,624.57,0.92,0000 0000 0000 0000 000000
2017-12-07 03:53:01,0.11,0.09,0.00,11.62,9.73,14.16,14.40,44.44,1024.34,2097.74,3598.18,3180.85,3643.72,600.19,624.77,0.97,0000 0000 0000 0000 000000
2017-12-07 03:58:03,0.11,0.10,0.00,11.77,9.93,14.40,14.42,44.40,1024.43,2097.02,3594.91,3178.24,3640.60,600.51,624.85,1.02,0000 0000 0000 0000 000000
2017-12-07 04:03:04,0.08,0.10,0.00,11.92,10.14,14.63,14.39,44.35,1024.44,2096.38,3591.57,3175.70,3637.54,600.29,624.23,1.07,0000 0000 0000 0000 000000
2017-12-07 04:08:06,0.12,0.11,0.00,12.02,10.35,14.85,14.36,44.23,1024.51,2095.80,3588.19,3173.02,3634.43,600.27,624.08,1.12,0000 0000 0000 0000 000000
2017-12-07 04:13:07,0.10,0.11,0.00,12.12,10.55,15.07,14.37,44.21,1024.76,2095.01,3584.84,3170.38,3631.29,599.85,623.58,1.17,0000 0000 0000 0000 000000
2017-12-07 04:18:08,0.07,0.11,0.00,12.23,10.75,15.28,14.35,44.23,1024.91,2094.18,3581.66,3167.77,3628.15,599.85,623.32,1.22,0000 0000 0000 0000 000000
2017-12-07 04:23:10,0.09,0.12,0.00,12.36,10.96,15.49,14.30,44.27,1024.92,2093.60,3578.31,3165.15,3625.09,599.80,623.14,1.27,0000 0000 0000 0000 000000
2017-12-07 04:28:11,0.12,0.13,0.00,12.47,11.16,15.68,14.42,44.38,1024.92,2092.95,3574.98,3162.51,3621.95,600.33,623.40,1.32,0000 0000 0000 0000 000000
2017-12-07 04:33:13,0.07,0.13,0.00,12.57,11.37,15.87,14.40,44.24,1024.92,2092.13,3571.67,3159.93,3618.93,600.09,622.91,1.37,0000 0000 0000 0000 000000
2017-12-07 04:38:14,0.08,0.14,0.00,12.68,11.56,16.06,14.36,44.22,1024.92,2091.51,3568.41,3157.38,3615.95,600.28,622.90,1.42,0000 0000 0000 0000 000000
2017-12-07 04:43:15,0.12,0.14,0.00,12.80,11.76,16.25,14.41,44.20,1024.97,2090.92,3565.15,3154.89,3612.92,600.39,622.77,1.47,0000 0000 0000 0000 000000
2017-12-07 04:48:17,0.07,0.14,0.00,12.90,11.95,16.44,14.39,44.25,1025.17,2090.11,3561.98,3152.45,3610.01,600.15,622.44,1.52,0000 0000 0000 0000 000000
2017-12-07 04:53:18,0.07,0.15,0.00,12.98,12.14,16.61,14.36,44.31,1025.36,2089.46,3558.87,3150.00,3607.01,600.30,622.49,1.57,0000 0000 0000 0000 000000
2017-12-07 04:58:19,0.12,0.15,0.00,13.10,12.32,16.78,14.41,44.28,1025.39,2088.85,3555.65,3147.44,3603.97,600.15,622.11,1.62,0000 0000 0000 0000 000000
2017-12-07 05:03:21,0.09,0.16,0.00,13.17,12.51,16.94,14.38,44.28,1025.40,2088.05,3552.39,3144.96,3600.99,599.94,621.82,1.67,0000 0000 0000 0000 000000
2017-12-07 05:08:22,0.07,0.16,0.00,13.25,12.69,17.09,14.35,44.23,1025.40,2087.38,3549.04,3142.41,3597.99,599.80,621.45,1.72,0000 0000 0000 0000 000000
2017-12-07 05:13:24,0.13,0.17,0.00,13.32,12.86,17.26,14.38,44.23,1025.40,2086.90,3545.85,3139.96,3595.08,600.00,621.57,1.77,0000 0000 0000 0000 000000
2017-12-07 05:18:25,0.07,0.17,0.00,13.44,13.04,17.46,14.39,44.21,1025.42,2086.08,3542.70,3137.51,3592.20,599.98,621.20,1.82,0000 0000 0000 0000 000000
2017-12-07 05:23:26,0.07,0.18,0.00,13.52,13.20,17.60,14.39,44.23,1025.55,2085.36,3539.45,3135.09,3589.19,600.29,621.45,1.87,0000 0000 0000 0000 000000
2017-12-07 05:28:27,0.13,0.18,0.00,13.60,13.37,17.76,14.40,44.19,1025.74,2084.94,3536.33,3132.78,3586.34,599.99,621.00,1.92,0000 0000 0000 0000 000000
2017-12-07 05:33:29,0.06,0.19,0.00,13.68,13.53,17.88,14.38,44.16,1025.68,2084.12,3533.20,3130.40,3583.58,600.33,621.30,1.97,0000 0000 0000 0000 000000
2017-12-07 05:38:30,0.09,0.19,0.00,13.74,13.70,18.03,14.35,44.10,1025.81,2083.64,3529.98,3127.98,3580.82,600.42,621.29,2.02,0000 0000 0000 0000 000000
2017-12-07 05:43:31,0.11,0.20,0.00,13.82,13.85,18.16,14.34,44.08,1025.88,2083.02,3526.89,3125.53,3578.00,600.12,620.83,2.07,0000 0000 0000 0000 000000
2017-12-07 05:48:33,0.08,0.20,0.00,13.88,14.00,18.29,14.38,44.09,1025.89,2082.35,3523.73,3123.14,3575.15,600.26,620.89,2.12,0000 0000 0000 0000 000000
2017-12-07 05:53:34,0.12,0.21,0.00,13.97,14.16,18.41,14.34,44.11,1025.90,2081.87,3520.63,3120.81,3572.32,599.69,620.12,2.17,0000 0000 0000 0000 000000
2017-12-07 05:58:35,0.06,0.21,0.00,14.03,14.30,18.55,14.32,44.12,1025.91,2081.10,3517.76,3118.46,3569.48,599.62,619.91,2.22,0000 0000 0000 0000 000000
2017-12-07 06:03:37,0.12,0.22,0.00,14.10,14.45,18.66,14.40,44.21,1025.92,2080.74,3514.53,3116.05,3566.60,600.02,620.15,2.27,0000 0000 0000 0000 000000
2017-12-07 06:08:38,0.09,0.22,0.00,14.19,14.59,18.76,14.41,44.14,1025.94,2080.04,3511.40,3113.67,3563.75,600.01,620.01,2.32,0000 0000 0000 0000 000000
2017-12-07 06:13:40,0.09,0.23,0.00,14.27,14.73,18.81,14.28,44.06,1026.09,2079.68,3508.29,3111.32,3560.97,599.98,619.94,2.37,0000 0000 0000 0000 000000
2017-12-07 06:18:41,0.11,0.23,0.00,14.31,14.87,18.83,14.35,44.13,1026.27,2079.02,3505.26,3109.09,3558.23,600.01,619.89,2.42,0000 0000 0000 0000 000000
2017-12-07 06:23:42,0.07,0.24,0.00,14.37,15.00,19.07,14.31,44.20,1026.38,2078.55,3502.22,3106.79,3555.51,599.82,619.63,2.47,0000 0000 0000 0000 000000
2017-12-07 06:28:44,0.12,0.24,0.00,14.44,15.13,19.05,14.35,44.13,1026.38,2078.01,3499.17,3104.47,3552.78,599.84,619.59,2.52,0000 0000 0000 0000 000000
2017-12-07 06:33:45,0.08,0.25,0.00,14.52,15.26,19.09,14.39,44.12,1026.38,2077.55,3496.06,3102.13,3549.97,600.16,619.71,2.57,0000 0000 0000 0000 000000
2017-12-07 06:38:47,0.12,0.25,0.00,14.58,15.38,19.19,14.40,44.18,1026.38,2077.01,3493.04,3099.91,3547.31,599.98,619.38,2.62,0000 0000 0000 0000 000000
2017-12-07 06:43:48,0.08,0.26,0.00,14.64,15.50,19.26,14.36,44.09,1026.38,2076.65,3490.07,3097.66,3544.70,599.87,619.06,2.67,0000 0000 0000 0000 000000
2017-12-07 06:48:49,0.10,0.26,0.00,14.69,15.61,19.35,14.35,44.08,1026.44,2076.03,3487.09,3095.50,3542.10,600.00,619.27,2.73,0000 0000 0000 0000 000000
2017-12-07 06:53:51,0.11,0.27,0.00,14.76,15.73,19.43,14.35,44.10,1026.65,2075.80,3484.13,3093.34,3539.49,600.09,619.25,2.78,0000 0000 0000 0000 000000
2017-12-07 06:58:52,0.07,0.27,0.00,14.80,15.84,19.52,14.38,44.13,1026.85,2075.07,3481.27,3091.20,3536.91,600.22,619.46,2.83,0000 0000 0000 0000 000000
2017-12-07 07:03:53,0.13,0.28,0.00,14.88,15.95,19.60,14.31,44.16,1026.87,2074.91,3478.33,3089.06,3534.28,600.14,619.18,2.88,0000 0000 0000 0000 000000
2017-12-07 07:08:54,0.05,0.28,0.00,14.91,16.06,19.68,14.34,44.18,1026.87,2074.18,3475.55,3086.96,3531.80,600.06,618.93,2.93,0000 0000 0000 0000 000000
2017-12-07 07:13:56,0.12,0.29,0.00,14.95,16.16,19.77,14.32,44.15,1026.89,2074.00,3472.75,3084.92,3529.34,600.04,618.91,2.98,0000 0000 0000 0000 000000
2017-12-07 07:18:57,0.07,0.29,0.00,15.01,16.27,19.85,14.44,44.07,1027.01,2073.56,3469.97,3082.88,3526.90,600.42,619.25,3.03,0000 0000 0000 0000 000000
2017-12-07 07:23:58,0.10,0.30,0.00,15.07,16.36,19.94,14.37,44.09,1027.18,2073.01,3467.25,3080.87,3524.44,600.03,618.70,3.08,0000 0000 0000 0000 000000
2017-12-07 07:29:00,0.11,0.30,0.00,15.15,16.46,20.00,14.33,44.22,1027.30,2072.90,3464.58,3078.89,3522.07,599.75,618.46,3.13,0000 0000 0000 0000 000000
2017-12-07 07:34:01,0.04,0.31,0.00,15.17,16.56,20.09,14.41,44.14,1027.34,2072.14,3462.00,3077.04,3519.91,600.34,619.02,3.18,0000 0000 0000 0000 000000
2017-12-07 07:39:02,0.11,0.31,0.00,15.23,16.65,20.14,14.34,44.17,1027.36,2072.00,3459.38,3075.17,3517.69,600.15,618.74,3.23,0000 0000 0000 0000 000000
2017-12-07 07:44:04,0.10,0.32,0.00,15.28,16.74,20.23,14.36,44.20,1027.36,2071.84,3456.83,3073.23,3515.45,600.04,618.45,3.28,0000 0000 0000 0000 000000
2017-12-07 07:49:06,0.05,0.32,0.00,15.32,16.82,20.28,14.34,44.16,1027.36,2071.08,3454.29,3071.36,3513.16,600.02,618.35,3.33,0000 0000 0000 0000 000000
2017-12-07 07:54:07,0.12,0.32,0.00,15.36,16.91,20.35,14.33,44.14,1027.39,2070.99,3451.71,3069.58,3510.87,599.86,618.11,3.38,0000 0000 0000 0000 000000
2017-12-07 07:59:08,0.07,0.33,0.00,15.41,16.99,20.43,14.35,44.06,1027.47,2070.64,3449.12,3067.70,3508.63,599.94,618.17,3.43,0000 0000 0000 0000 000000
2017-12-07 08:04:10,0.08,0.33,0.00,15.48,17.07,20.49,14.33,44.04,1027.54,2070.05,3446.54,3065.88,3506.46,599.98,618.05,3.48,0000 0000 0000 0000 000000
2017-12-07 08:09:11,0.11,0.34,0.00,15.52,17.15,20.55,14.33,44.05,1027.67,2070.00,3444.05,3064.09,3504.29,599.91,618.02,3.53,0000 0000 0000 0000 000000
2017-12-07 08:14:12,0.08,0.34,0.00,15.57,17.23,20.63,14.36,44.08,1027.79,2069.77,3441.50,3062.25,3502.07,599.85,618.01,3.58,0000 0000 0000 0000 000000
2017-12-07 08:19:13,0.06,0.35,0.00,15.61,17.30,20.70,14.39,44.11,1027.85,2069.11,3439.08,3060.48,3499.92,600.45,618.36,3.63,0000 0000 0000 0000 000000
2017-12-07 08:24:14,0.11,0.35,0.00,15.66,17.38,20.76,14.33,44.08,1027.85,2069.00,3436.53,3058.67,3497.75,599.98,617.84,3.68,0000 0000 0000 0000 000000
2017-12-07 08:29:15,0.10,0.36,0.00,15.67,17.45,20.81,14.34,44.02,1027.85,2068.85,3434.05,3056.82,3495.57,599.87,617.74,3.73,0000 0000 0000 0000 000000
2017-12-07 08:34:17,0.04,0.36,0.00,15.66,17.53,20.88,14.36,44.11,1027.87,2068.16,3431.57,3055.14,3493.40,600.19,618.03,3.78,0000 0000 0000 0000 000000
2017-12-07 08:39:18,0.10,0.37,0.00,15.71,17.60,20.92,14.41,44.05,1027.93,2068.00,3429.14,3053.37,3491.32,600.24,618.09,3.83,0000 0000 0000 0000 000000
2017-12-07 08:44:20,0.11,0.37,0.00,15.78,17.67,21.01,14.41,44.07,1028.06,2067.96,3426.73,3051.62,3489.21,599.71,617.58,3.88,0000 0000 0000 0000 000000
2017-12-07 08:49:21,0.05,0.38,0.00,15.84,17.74,21.07,14.33,44.02,1028.31,2067.50,3424.35,3049.89,3487.09,600.09,617.95,3.93,0000 0000 0000 0000 000000
2017-12-07 08:54:22,0.08,0.38,0.00,15.87,17.81,21.12,14.23,43.98,1028.33,2067.04,3421.90,3048.17,3485.01,599.88,617.66,3.98,0000 0000 0000 0000 000000
2017-12-07 08:59:24,0.11,0.38,0.00,15.92,17.88,21.19,14.38,43.92,1028.33,2067.00,3419.46,3046.46,3482.90,600.36,617.99,4.03,0000 0000 0000 0000 000000
2017-12-07 09:04:25,0.10,0.39,0.00,15.93,17.95,21.26,14.36,43.97,1028.33,2066.90,3417.12,3044.73,3480.87,599.91,617.52,4.08,0000 0000 0000 0000 000000
2017-12-07 09:09:26,0.04,0.39,0.00,15.95,18.01,21.31,14.37,43.99,1028.36,2066.15,3414.68,3042.95,3478.75,599.87,617.44,4.13,0000 0000 0000 0000 000000
2017-12-07 09:14:27,0.10,0.40,0.00,15.99,18.08,21.38,14.43,44.05,1028.36,2066.01,3412.41,3041.38,3476.76,600.18,617.78,4.18,0000 0000 0000 0000 000000
2017-12-07 09:19:28,0.11,0.40,0.00,16.02,18.14,21.43,14.31,44.02,1028.43,2065.98,3410.00,3039.67,3474.69,600.09,617.61,4.23,0000 0000 0000 0000 000000
2017-12-07 09:24:30,0.08,0.41,0.00,16.04,18.21,21.50,14.29,44.08,1028.64,2065.79,3407.72,3037.93,3472.67,600.10,617.86,4.28,0000 0000 0000 0000 000000
2017-12-07 09:29:31,0.05,0.41,0.00,16.11,18.27,21.56,14.30,43.96,1028.70,2065.13,3405.36,3036.23,3470.66,599.97,617.47,4.33,0000 0000 0000 0000 000000
2017-12-07 09:34:32,0.10,0.41,0.00,16.15,18.33,21.64,14.40,44.03,1028.75,2065.01,3403.14,3034.62,3468.70,600.33,617.78,4.38,0000 0000 0000 0000 000000
2017-12-07 09:39:33,0.11,0.42,0.00,16.20,18.39,21.66,14.33,44.06,1028.76,2064.99,3400.70,3032.83,3466.54,600.03,617.43,4.43,0000 0000 0000 0000 000000
2017-12-07 09:44:34,0.08,0.43,0.00,16.25,18.45,21.73,14.29,43.89,1028.77,2064.80,3398.28,3031.13,3464.42,599.99,617.18,4.48,0000 0000 0000 0000 000000
2017-12-07 09:49:35,0.06,0.43,0.00,16.26,18.50,21.79,14.34,44.02,1028.82,2064.18,3395.86,3029.45,3462.36,600.06,617.25,4.53,0000 0000 0000 0000 000000
2017-12-07 09:54:37,0.11,0.43,0.00,16.31,18.56,21.84,14.39,44.05,1028.82,2064.01,3393.47,3027.72,3460.32,600.00,617.14,4.58,0000 0000 0000 0000 000000
2017-12-07 09:59:38,0.14,0.44,0.00,16.35,18.61,21.90,14.30,44.04,1028.82,2064.00,3390.56,3025.58,3457.74,600.08,617.05,4.63,0000 0000 0000 0000 000000
2017-12-07 10:04:39,0.11,0.45,0.00,16.39,18.67,21.95,14.23,44.05,1028.82,2063.90,3387.99,3023.75,3455.60,600.05,617.10,4.68,0000 0000 0000 0000 000000
2017-12-07 10:09:41,0.04,0.45,0.00,16.41,18.72,21.99,14.29,43.95,1028.83,2063.23,3385.49,3021.96,3453.51,599.87,616.85,4.73,0000 0000 0000 0000 000000
2017-12-07 10:14:42,0.10,0.45,0.00,16.46,18.78,22.06,14.36,44.02,1028.84,2063.01,3383.10,3020.28,3451.46,599.97,616.76,4.78,0000 0000 0000 0000 000000
2017-12-07 10:19:44,0.12,0.46,0.00,16.52,18.83,22.13,14.37,44.02,1028.91,2063.00,3380.72,3018.59,3449.42,600.18,616.88,4.83,0000 0000 0000 0000 000000
2017-12-07 10:24:45,0.10,0.46,0.00,16.54,18.89,22.18,14.33,43.95,1029.11,2062.97,3378.39,3016.89,3447.45,599.95,616.78,4.88,0000 0000 0000 0000 000000
2017-12-07 10:29:46,0.06,0.47,0.00,16.58,18.94,22.23,14.30,43.92,1029.26,2062.62,3376.05,3015.30,3445.47,600.04,616.85,4.93,0000 0000 0000 0000 000000
2017-12-07 10:34:47,0.07,0.47,0.00,16.60,18.99,22.29,14.35,43.94,1029.30,2062.14,3373.79,3013.68,3443.57,599.95,616.68,4.98,0000 0000 0000 0000 000000
2017-12-07 10:39:48,0.10,0.48,0.00,16.64,19.04,22.33,14.25,43.86,1029.31,2062.01,3371.53,3012.09,3441.60,599.70,616.47,5.03,0000 0000 0000 0000 000000
2017-12-07 10:44:49,0.11,0.48,0.00,16.68,19.10,22.41,14.30,43.81,1029.31,2061.99,3369.17,3010.41,3439.58,600.08,616.54,5.08,0000 0000 0000 0000 000000
2017-12-07 10:49:50,0.15,0.49,0.00,16.69,19.15,22.43,14.37,43.91,1029.33,2061.96,3365.93,3008.28,3437.02,600.05,616.76,5.14,0000 0000 0000 0000 000000
2017-12-07 10:54:51,0.08,0.50,0.00,16.75,19.20,22.47,14.40,43.94,1029.32,2061.69,3363.15,3006.58,3434.76,600.07,616.47,5.19,0000 0000 0000 0000 000000
2017-12-07 10:59:53,0.06,0.50,0.00,16.80,19.25,22.54,14.32,43.88,1029.34,2061.11,3360.82,3004.92,3432.75,599.90,616.35,5.24,0000 0000 0000 0000 000000
2017-12-07 11:04:54,0.11,0.50,0.00,16.84,19.30,22.58,14.32,43.88,1029.37,2061.01,3358.41,3003.27,3430.74,600.10,616.47,5.29,0000 0000 0000 0000 000000
2017-12-07 11:09:56,0.11,0.51,0.00,16.83,19.35,22.61,14.40,43.93,1029.48,2060.99,3356.10,3001.60,3428.73,600.05,616.40,5.34,0000 0000 0000 0000 000000
2017-12-07 11:14:57,0.10,0.51,0.00,16.88,19.40,22.67,14.35,43.92,1029.58,2060.93,3353.74,2999.92,3426.75,600.00,616.38,5.39,0000 0000 0000 0000 000000
2017-12-07 11:19:58,0.05,0.52,0.00,16.90,19.45,22.73,14.41,44.03,1029.65,2060.44,3351.46,2998.35,3424.80,600.04,616.64,5.44,0000 0000 0000 0000 000000
2017-12-07 11:25:00,0.09,0.52,0.00,16.93,19.50,22.76,14.29,43.98,1029.71,2060.09,3349.22,2996.71,3422.84,599.79,616.17,5.49,0000 0000 0000 0000 000000
2017-12-07 11:30:01,0.09,0.53,0.00,16.97,19.54,22.80,14.23,43.89,1029.79,2060.01,3346.93,2995.22,3420.90,599.88,616.18,5.54,0000 0000 0000 0000 000000
2017-12-07 11:35:02,0.11,0.53,0.00,17.00,19.59,22.86,14.30,43.97,1029.80,2060.00,3344.70,2993.62,3419.04,599.82,616.06,5.59,0000 0000 0000 0000 000000
2017-12-07 11:40:04,0.10,0.54,0.00,17.04,19.63,22.88,14.27,43.93,1029.80,2059.98,3342.34,2991.93,3416.96,599.85,616.15,5.64,0000 0000 0000 0000 000000
2017-12-07 11:45:05,0.09,0.54,0.00,17.05,19.68,22.92,14.39,43.93,1029.80,2059.82,3340.09,2990.40,3415.08,600.21,616.22,5.69,0000 0000 0000 0000 000000
2017-12-07 11:50:06,0.05,0.55,0.00,17.09,19.72,22.98,14.32,43.93,1029.80,2059.16,3337.72,2988.73,3413.01,599.87,615.92,5.74,0000 0000 0000 0000 000000
2017-12-07 11:55:07,0.10,0.55,0.00,17.12,19.76,23.02,14.22,43.87,1029.80,2059.02,3335.44,2987.19,3411.15,599.78,615.77,5.79,0000 0000 0000 0000 000000
2017-12-07 12:00:08,0.10,0.56,0.00,17.15,19.81,23.05,14.39,44.00,1029.80,2059.00,3333.30,2985.66,3409.36,599.93,615.84,5.84,0000 0000 0000 0000 000000
2017-12-07 12:05:10,0.10,0.56,0.00,17.20,19.85,23.10,14.21,43.89,1029.80,2058.99,3331.11,2984.15,3407.51,599.73,615.55,5.89,0000 0000 0000 0000 000000
2017-12-07 12:10:11,0.10,0.57,0.00,17.23,19.89,23.12,14.49,43.90,1029.81,2058.97,3328.84,2982.61,3405.58,600.30,616.04,5.94,0000 0000 0000 0000 000000
2017-12-07 12:15:12,0.08,0.57,0.00,17.24,19.93,23.16,14.36,43.85,1029.84,2058.84,3326.72,2981.05,3403.73,600.01,615.77,5.99,0000 0000 0000 0000 000000
2017-12-07 12:20:14,0.04,0.57,0.00,17.27,19.97,23.19,14.39,43.84,1029.98,2058.26,3324.64,2979.54,3401.88,600.32,616.08,6.04,0000 0000 0000 0000 000000
2017-12-07 12:25:15,0.09,0.58,0.00,17.28,20.00,23.25,14.26,43.88,1030.14,2058.02,3322.41,2977.96,3399.98,599.75,615.58,6.09,0000 0000 0000 0000 000000
2017-12-07 12:30:16,0.10,0.58,0.00,17.31,20.04,23.28,14.38,43.81,1030.27,2058.00,3320.26,2976.50,3398.14,599.89,615.78,6.14,0000 0000 0000 0000 000000
2017-12-07 12:35:17,0.10,0.59,0.00,17.32,20.08,23.30,14.28,43.74,1030.29,2058.00,3318.08,2974.97,3396.31,599.91,615.77,6.19,0000 0000 0000 0000 000000
2017-12-07 12:40:18,0.10,0.59,0.00,17.37,20.12,23.35,14.38,43.83,1030.29,2057.97,3315.90,2973.44,3394.44,600.38,615.99,6.24,0000 0000 0000 0000 000000
2017-12-07 12:45:20,0.08,0.60,0.00,17.40,20.15,23.39,14.36,43.83,1030.29,2057.83,3313.74,2971.88,3392.61,599.81,615.46,6.29,0000 0000 0000 0000 000000
2017-12-07 12:50:21,0.05,0.60,0.00,17.41,20.18,23.40,14.38,43.88,1030.29,2057.43,3311.59,2970.45,3390.87,600.28,615.97,6.34,0000 0000 0000 0000 000000
2017-12-07 12:55:22,0.08,0.61,0.00,17.44,20.22,23.45,14.24,43.88,1030.29,2057.06,3309.36,2968.88,3389.08,599.90,615.49,6.39,0000 0000 0000 0000 000000
2017-12-07 13:00:23,0.09,0.61,0.00,17.45,20.25,23.47,14.31,43.88,1030.29,2057.01,3307.25,2967.41,3387.32,599.83,615.48,6.44,0000 0000 0000 0000 000000
2017-12-07 13:05:24,0.11,0.62,0.00,17.48,20.29,23.49,14.31,43.87,1030.31,2057.00,3304.98,2965.85,3385.54,599.88,615.46,6.49,0000 0000 0000 0000 000000
2017-12-07 13:10:26,0.10,0.62,0.00,17.49,20.33,23.55,14.33,43.83,1030.31,2057.00,3302.78,2964.37,3383.74,600.12,615.63,6.54,0000 0000 0000 0000 000000
2017-12-07 13:15:27,0.10,0.63,0.00,17.51,20.36,23.55,14.32,43.80,1030.31,2056.99,3300.76,2962.83,3381.76,600.16,615.62,6.59,0000 0000 0000 0000 000000
2017-12-07 13:20:28,0.08,0.63,0.00,17.54,20.39,23.60,14.29,43.88,1030.30,2056.93,3298.58,2961.40,3379.81,599.86,615.36,6.64,0000 0000 0000 0000 000000
2017-12-07 13:25:30,0.05,0.64,0.00,17.55,20.43,23.64,14.34,43.92,1030.32,2056.41,3296.47,2959.89,3377.99,600.11,615.53,6.69,0000 0000 0000 0000 000000
2017-12-07 13:30:31,0.08,0.64,0.00,17.58,20.46,23.66,14.35,43.86,1030.31,2056.07,3294.29,2958.40,3376.09,599.90,615.21,6.74,0000 0000 0000 0000 000000
2017-12-07 13:35:32,0.10,0.64,0.00,17.59,20.49,23.68,14.35,43.83,1030.34,2056.02,3292.14,2956.87,3374.30,600.07,615.32,6.79,0000 0000 0000 0000 000000
2017-12-07 13:40:34,0.10,0.65,0.00,17.61,20.52,23.71,14.37,43.89,1030.50,2056.00,3289.87,2955.36,3372.42,600.13,615.50,6.84,0000 0000 0000 0000 000000
2017-12-07 13:45:35,0.11,0.65,0.00,17.66,20.55,23.75,14.29,43.82,1030.66,2055.99,3287.62,2953.79,3370.51,600.14,615.44,6.89,0000 0000 0000 0000 000000
2017-12-07 13:50:37,0.10,0.66,0.00,17.67,20.58,23.76,14.33,43.80,1030.77,2055.97,3285.49,2952.38,3368.71,600.13,615.60,6.94,0000 0000 0000 0000 000000
2017-12-07 13:55:38,0.08,0.66,0.00,17.69,20.61,23.80,14.36,43.94,1030.78,2055.87,3283.59,2950.95,3366.94,600.14,615.46,6.99,0000 0000 0000 0000 000000
2017-12-07 14:00:39,0.04,0.67,0.00,17.70,20.63,23.83,14.38,43.85,1030.78,2055.55,3281.81,2949.76,3365.50,600.09,615.50,7.04,0000 0000 0000 0000 000000
2017-12-07 14:05:41,0.05,0.67,0.00,17.73,20.66,23.85,14.42,43.89,1030.78,2055.10,3280.29,2948.62,3364.03,600.46,615.76,7.09,0000 0000 0000 0000 000000
2017-12-07 14:10:42,0.07,0.67,0.00,17.74,20.69,23.87,14.22,43.76,1030.78,2055.02,3278.72,2947.55,3362.75,599.60,614.85,7.14,0000 0000 0000 0000 000000
2017-12-07 14:15:43,0.07,0.68,0.00,17.77,20.72,23.90,14.40,43.77,1030.78,2055.00,3277.23,2946.51,3361.48,600.21,615.42,7.19,0000 0000 0000 0000 000000
2017-12-07 14:20:45,0.07,0.68,0.00,17.79,20.74,23.94,14.29,43.75,1030.79,2054.99,3275.70,2945.49,3360.26,600.19,615.32,7.24,0000 0000 0000 0000 000000
2017-12-07 14:25:46,0.07,0.68,0.00,17.81,20.76,23.96,14.33,43.76,1030.78,2054.98,3274.18,2944.43,3358.91,600.10,615.22,7.29,0000 0000 0000 0000 000000
2017-12-07 14:30:47,0.07,0.69,0.00,17.84,20.79,23.99,14.36,43.70,1030.78,2054.97,3272.66,2943.52,3357.62,600.02,615.08,7.34,0000 0000 0000 0000 000000
2017-12-07 14:35:49,0.06,0.69,0.00,17.84,20.81,24.00,14.30,43.67,1030.78,2054.93,3271.27,2942.54,3356.43,599.86,614.79,7.39,0000 0000 0000 0000 000000
2017-12-07 14:40:50,0.02,0.69,0.00,17.88,20.83,24.02,14.27,43.67,1030.78,2054.61,3269.76,2941.56,3355.25,600.02,615.04,7.45,0000 0000 0000 0000 000000
2017-12-07 14:45:51,0.04,0.69,0.00,17.91,20.86,24.03,14.26,43.67,1030.79,2054.14,3268.40,2940.55,3353.99,599.77,614.68,7.50,0000 0000 0000 0000 000000
2017-12-07 14:50:52,0.06,0.70,0.00,17.90,20.88,24.07,14.32,43.68,1030.84,2054.05,3266.93,2939.68,3352.82,599.98,614.93,7.55,0000 0000 0000 0000 000000
2017-12-07 14:55:54,0.06,0.70,0.00,17.94,20.90,24.12,14.27,43.74,1030.90,2054.01,3265.62,2938.78,3351.75,599.84,614.80,7.60,0000 0000 0000 0000 000000
2017-12-07 15:00:55,0.06,0.70,0.00,17.96,20.93,24.12,14.28,43.75,1030.93,2054.00,3264.26,2937.80,3350.53,599.62,614.43,7.65,0000 0000 0000 0000 000000
2017-12-07 15:05:57,0.06,0.71,0.00,17.97,20.95,24.15,14.36,43.65,1031.19,2054.00,3262.88,2936.83,3349.42,600.25,615.28,7.70,0000 0000 0000 0000 000000
2017-12-07 15:10:58,0.06,0.71,0.00,17.99,20.97,24.18,14.24,43.66,1031.25,2054.00,3261.56,2935.84,3348.19,599.69,614.75,7.75,0000 0000 0000 0000 000000
2017-12-07 15:15:59,0.06,0.71,0.00,18.00,20.99,24.20,14.34,43.81,1031.25,2053.98,3260.09,2934.88,3346.94,600.20,615.35,7.80,0000 0000 0000 0000 000000